sat.trackr.live / text

‹ back to catalog

2024-153E

NORAD 60749 · 2024-153E

PAYLOAD ACTIVE UNKNOWN

§ Identity

Operator
Country
PRC
Launch date
2024-08-29
Launch site
YSLA
Launch vehicle
Mass (kg)
RCS (m²)

External: N2YO · Heavens-Above · Gunter

§ Orbital elements

Epoch: 2026-05-25T04:34:43.638240Z

Period
94.35 min
Inclination
97.6686°
Eccentricity
0.0001977
Mean motion
15.26304016 rev/d
Perigee alt
485.5 km
Apogee alt
488.2 km
Semi-major
6,865.0 km
B*
5.7924e-4
RAAN
281.9114°
Arg perigee
41.0725°
Mean anomaly
319.0661°
Rev number
9,632

§ Raw data

2024-153E1 60749U 24153E   26145.19078285  .00014971  00000+0  57924-3 0  99902 60749  97.6686 281.9114 0001977  41.0725 319.0661 15.26304016 96323

JSON: /api/v1/satellites/60749 · /tle

For live sub-satellite position, see the globe view (requires WebGL).

§ Visibility from observer

Set your observer location to see the next 7 days of passes ≥ 10°. The values pass through the URL so the page stays shareable.

No JS? Fill the form by hand. The geolocation button needs JavaScript.